Regional Weather Roundup
Issued by NWS

Home | Current Version | Previous Version | Graphics & Text | Print | Product List | Glossary Off
Versions: 1 2 3 4 5 6 7 8 9 10 11 12 13 14 15 16 17 18 19 20 21 22 23 24 25 26 27 28 29 30 31 32 33 34 35 36 37 38 39 40 41 42 43 44 45 46 47 48 49 50

000
ASUS43 KFSD 251202
RWRSD

WEATHER ROUNDUP FOR SOUTH DAKOTA
NATIONAL WEATHER SERVICE SIOUX FALLS SD
600 AM CST SUN JAN 25 2015

NOTE: "FAIR" INDICATES FEW OR NO CLOUDS BELOW 12,000 FEET WITH NO
SIGNIFICANT WEATHER AND/OR OBSTRUCTIONS TO VISIBILITY.


SDZ001>005-009-010-012>017-251300-
NORTHWEST AND NORTH CENTRAL SOUTH DAKOTA

CITY           SKY/WX    TMP DP  RH WIND       PRES   REMARKS
BUFFALO          N/A     29  24  82 W8        29.95S WCI  21
FAITH            N/A     31  26  82 NW17      29.98F WCI  19
MOBRIDGE       CLOUDY    38  33  82 NW13      29.92R
$$

SDZ012>016-024>037-041>051-057-063-072>074-251300-
SOUTHWEST AND SOUTH CENTRAL SOUTH DAKOTA

CITY           SKY/WX    TMP DP  RH WIND       PRES   REMARKS
RAPID CTY ARPT CLEAR     36  21  54 N18       30.01F
PIERRE         CLOUDY    37  31  78 NW18      29.95R
CUSTER         CLEAR     34   4  28 N14G31    29.97F WCI  25
PHILIP         CLEAR     35  27  72 NW16      30.00R WCI  25
PINE RIDGE     CLEAR     24  20  84 SW6       30.05R WCI  17
WINNER         CLOUDY    39  31  72 NW23G31   29.95R
$$

SDZ004>011-016>023-039-040-251300-
NORTHEAST SOUTH DAKOTA

CITY           SKY/WX    TMP DP  RH WIND       PRES   REMARKS
ABERDEEN       CLOUDY    29  26  89 N12       29.96R WCI  19
WATERTOWN      CLOUDY    29  27  92 N13       29.89R WCI  19
SISSETON         N/A     25  23  92 N14       29.93R WCI  13
$$

SDZ017-020-022-023-036>040-048>070-251300-
SOUTHEAST SOUTH DAKOTA

CITY           SKY/WX    TMP DP  RH WIND       PRES   REMARKS
SIOUX FALLS    CLOUDY    33  32  96 N13       29.85R WCI  24
HURON          CLOUDY    30  29  96 NW12      29.93R WCI  20
MITCHELL       CLOUDY    32  30  92 NW15      29.93R WCI  22
YANKTON        CLOUDY    34  28  80 NW20      29.89R WCI  22
$$

ABBREVIATIONS USED IN REMARKS
   TC - TEMPERATURE IN CELSIUS
  WCI - WIND CHILL INDEX
   HX - HEAT INDEX
  VSB - VISIBILITY




USA.gov is the U.S. government's official web portal to all federal, state and local government web resources and services.